[[{"header":{"parameterUnit":"m.s-1","parameterCategory":1,"la1":30.2992,"la2":30.254,"lo1":-89.0895,"lo2":-89.0443,"dy":0.0025,"dx":0.0025,"nx":19,"ny":19,"refTime":"2026-05-09T03:00:00:Z","depth":0,"parameterNumber":2,"parameterNumberName":"U-component_of_WINDS"},"data":[0,0,0,-5.841,-5.8408,-5.8248,-5.8247,-5.8106,-5.8105,0,0,0,0,0,0,0,0,0,0,0,-5.8499,-5.8499,-5.841,-5.8407,-5.8248,-5.8247,-5.8106,-5.8105,0,0,0,0,0,0,0,0,0,0,0,-5.8498,-5.8499,-5.85,-5.8407,-5.8248,-5.8247,-5.8106,-5.8203,0,0,0,0,0,0,0,0,0,0,-5.8347,-5.847,-5.8499,-5.85,-5.8406,-5.8249,-5.8247,-5.8207,-5.8197,-5.8206,0,-5.8229,0,-5.8166,-5.81,-5.81,0,0,0,-5.8375,-5.8479,-5.8399,-5.85,-5.8405,-5.8249,-5.8311,-5.8201,-5.819,-5.8194,-5.8226,-5.8219,-5.8163,-5.81,-5.8099,-5.8265,-5.8267,0,0,-5.8384,-5.8491,-5.8407,-5.8394,-5.8426,-5.8316,-5.8306,-5.8193,-5.8234,-5.8225,-5.8214,-5.8161,-5.8099,-5.8099,-5.8263,-5.8265,0,0,0,-5.8431,-5.8499,-5.842,-5.8402,-5.8368,-5.8312,-5.8301,-5.8238,-5.8204,-5.8212,-5.8159,-5.8099,-5.8098,-5.826,-5.8264,-5.8479,0,0,0,-5.8435,-5.8526,-5.8426,-5.849,-5.8372,-5.8302,-5.8351,-5.8212,-5.8196,-5.816,-5.8099,-5.8097,-5.8257,-5.8262,-5.8468,-5.8562,0,0,0,-5.8495,-5.8532,-5.8524,-5.8496,-5.8432,-5.8301,-5.8259,-5.8206,-5.8165,-5.81,-5.8097,-5.8256,-5.8261,-5.8458,-5.8545,-5.8634,0,0,0,-5.8589,-5.8718,-5.853,-5.8653,-5.8434,-5.8439,-5.8259,-5.8256,-5.8227,-5.8098,-5.8258,-5.8263,-5.8454,-5.8534,-5.8625,-5.8727,-5.8782,0,0,-5.8812,-5.8749,-5.8813,-5.864,-5.8706,-5.8454,-5.855,-5.8419,-5.8314,-5.8286,-5.8289,-5.8472,-5.8544,-5.8632,-5.9054,-5.9098,0,0,0,-5.892,-5.8967,-5.8961,-5.8939,-5.8846,-5.877,-5.8615,-5.8566,-5.8538,-5.8323,-5.8527,-5.8566,-5.8614,-5.8657,-5.8695,-5.8727,-5.8289,-5.8289,-5.8288,-5.9387,-5.9247,-5.9342,-5.9184,-5.9165,-5.9004,-5.8974,-5.8879,-5.8743,-5.8794,-5.8783,-5.9057,-5.9113,-5.9139,-5.9175,-5.8829,-5.883,-5.8831,-5.8832,-5.9697,-5.9739,-5.9557,-5.9584,-5.9435,-5.9454,-5.9304,-5.9206,-5.92,-5.9053,-5.9088,-5.8936,-5.9192,-5.9215,-5.8846,-5.8844,-5.8842,-5.884,-5.8839,-5.9983,-5.9979,-5.9921,-5.9874,-5.9853,-5.9687,-5.969,-5.9554,-5.9425,-5.946,-5.9432,-5.9428,-5.9403,-5.9457,-5.9458,-5.9459,-5.946,-5.9461,-5.9461,-6.0302,-6.0229,-6.0249,-6.0162,-6.0129,-6.0069,-5.9909,-5.9872,-5.9795,-5.9694,-5.9693,-5.955,-5.9246,-5.917,-5.9475,-5.9473,-5.9471,-5.947,-5.9469,-6.066,-6.0558,-6.0591,-6.0559,-6.0443,-6.043,-6.0258,-6.0194,-6.0143,-6.0148,-5.9998,-5.9797,-5.9721,-5.9691,-5.9626,-6.0031,-6.0031,-6.0031,-6.0031,-6.0899,-6.0849,-6.0851,-6.0808,-6.0751,-6.0599,-6.0636,-6.0513,-6.0368,-6.0327,-6.025,-6.0155,-6.013,-6.0068,-6.0029,-5.9967,-6.0449,-6.045,-6.045,-6.1109,-6.1048,-6.1107,-6.0969,-6.0868,-6.0784,-6.0813,-6.0768,-6.0583,-6.0464,-6.0291,-6.0274,-6.0118,-6.0076,-5.9949,-5.9892,-5.9774,0,0]},{"header":{"parameterUnit":"m.s-1","parameterCategory":1,"la1":30.2992,"la2":30.254,"lo1":-89.0895,"lo2":-89.0443,"dy":0.0025,"dx":0.0025,"nx":19,"ny":19,"refTime":"2026-05-09T03:00:00:Z","depth":0,"parameterNumber":3,"parameterNumberName":"V-component_of_WINDS"},"data":[0,0,0,0.208,0.2083,0.2239,0.224,0.2423,0.2425,0,0,0,0,0,0,0,0,0,0,0,0.2022,0.2023,0.208,0.2083,0.2239,0.224,0.2423,0.2425,0,0,0,0,0,0,0,0,0,0,0,0.2022,0.2023,0.2024,0.2084,0.2239,0.224,0.2422,0.2311,0,0,0,0,0,0,0,0,0,0,0.2162,0.2098,0.2023,0.2024,0.2084,0.2238,0.224,0.2306,0.2318,0.2345,0,0.2365,0,0.2398,0.2436,0.2436,0,0,0,0.2092,0.2088,0.214,0.2024,0.2086,0.2238,0.2171,0.2313,0.2326,0.2361,0.2368,0.2375,0.2401,0.2437,0.2438,0.2564,0.2564,0,0,0.2083,0.2045,0.213,0.2148,0.2121,0.2166,0.2176,0.2321,0.2327,0.2369,0.238,0.2404,0.2438,0.2439,0.2564,0.2564,0,0,0,0.2053,0.2038,0.2087,0.214,0.2169,0.217,0.2182,0.232,0.2339,0.2382,0.2406,0.2439,0.2441,0.2564,0.2564,0.2537,0,0,0,0.2048,0.2021,0.2083,0.2061,0.2166,0.2246,0.2177,0.2329,0.2347,0.2405,0.2439,0.2442,0.2564,0.2564,0.2537,0.253,0,0,0,0.2016,0.2017,0.2036,0.2059,0.2124,0.2245,0.2273,0.2334,0.2361,0.2436,0.2443,0.2564,0.2564,0.2537,0.2531,0.2554,0,0,0,0.1972,0.2008,0.2034,0.2085,0.2123,0.2226,0.2272,0.2351,0.2412,0.244,0.2564,0.2564,0.2538,0.2532,0.2554,0.2567,0.2568,0,0,0.1997,0.201,0.2043,0.2071,0.216,0.2205,0.2291,0.2384,0.2426,0.2516,0.252,0.2537,0.2531,0.2554,0.2586,0.2587,0,0,0,0.2038,0.2062,0.2094,0.215,0.2221,0.2282,0.2365,0.24,0.2479,0.2464,0.2552,0.2549,0.2564,0.2573,0.2573,0.259,0.2566,0.2566,0.2566,0.202,0.2072,0.2131,0.2202,0.2256,0.2342,0.2391,0.2453,0.249,0.251,0.2537,0.2551,0.2558,0.2559,0.2576,0.2547,0.2547,0.2547,0.2547,0.2063,0.2105,0.2153,0.2228,0.2283,0.2347,0.2432,0.2456,0.2525,0.2534,0.255,0.2556,0.2558,0.2576,0.2545,0.2546,0.2546,0.2546,0.2546,0.2057,0.2087,0.2128,0.2215,0.2277,0.2349,0.2413,0.2461,0.2507,0.2523,0.2558,0.2559,0.2567,0.2536,0.2536,0.2536,0.2536,0.2536,0.2536,0.2036,0.2083,0.213,0.221,0.2253,0.2316,0.2404,0.2449,0.2511,0.2541,0.2542,0.2578,0.2548,0.254,0.2537,0.2537,0.2537,0.2537,0.2537,0.2062,0.2064,0.2137,0.218,0.2279,0.2338,0.2399,0.2486,0.253,0.2561,0.2594,0.2563,0.258,0.258,0.2575,0.2581,0.2581,0.2581,0.2581,0.2059,0.2072,0.2158,0.2225,0.2296,0.2358,0.2442,0.2511,0.2583,0.2615,0.2621,0.2617,0.2614,0.2633,0.2632,0.2628,0.2647,0.2647,0.2647,0.2079,0.2101,0.2162,0.2232,0.2313,0.2382,0.2462,0.2539,0.2621,0.2651,0.2641,0.2638,0.2632,0.2627,0.2657,0.2654,0.2647,0,0]}]]